This demonstration page uses our WeatherBlox Daily Observations layout. Learn more.

Left ArrowRight Arrow

30.00354, -91.81873

Hourly Observations for August 25, 2022

Temp ( °F °C ) Dew Point ( °F °C ) Humidity (%) Winds ( mph kmh ) Pressure ( in mb ) Visibility ( mi km ) Precip ( " mm )
12:53 am 00:53 Clear 76 24.4 73 22.8 91 91 SE 7 11 29.94 1014 10 16 0.00 0.00
1:53 am 01:53 Clear 76 24.4 74 23.3 94 94 SE 3 6 29.93 1013 10 16 0.00 0.00
2:53 am 02:53 Clear 76 24.4 73 22.8 91 91 E 5 7 29.92 1013 10 16 0.00 0.00
3:53 am 03:53 Mostly Cloudy 76 24.4 73 22.8 91 91 Calm 29.92 1013 9 14 0.00 0.00
4:53 am 04:53 Clear 76 24.4 73 22.8 91 91 E 3 6 29.92 1013 10 16 0.00 0.00
5:53 am 05:53 Mostly Cloudy 76 24.4 74 23.3 94 94 E 3 6 29.92 1013 10 16 0.00 0.00
6:53 am 06:53 Partly Cloudy 77 25 74 23.3 90 90 E 3 6 29.93 1014 10 16 0.01 0.13
7:53 am 07:53 Partly Cloudy 78 25.6 75 23.9 90 90 E 3 6 29.95 1014 10 16 0.01 0.13
8:46 am 08:46 Mostly Cloudy with Nearby Thunderstorms 80 26.7 76 24.4 87 87 S 3 6 29.96 1014 10 16 0.00 0.00
8:53 am 08:53 Mostly Cloudy with Nearby Thunderstorms 79 26.1 76 24.4 90 90 S 3 6 29.96 1015 10 16 0.00 0.00
9:18 am 09:18 Mostly Cloudy with Light Rain 77 25 73 22.8 88 88 W 8 13 29.99 1016 10 16 0.01 0.13
9:26 am 09:26 Mostly Cloudy with Light Rain 76 24.4 73 22.8 91 91 W 10 17 29.99 1016 10 16 0.01 0.13
9:31 am 09:31 Cloudy with Nearby Thunderstorms 76 24.4 73 22.8 91 91 W 9 15 30.00 1016 2 2 0.10 2.54
9:41 am 09:41 Cloudy with Strong Thunderstorms 75 23.9 73 22.8 94 94 WNW 8 13 30.00 1016 2 2 0.16 4.06
9:47 am 09:47 Cloudy with Thunderstorms 75 24 73 23 94 94 WNW 12 19 30.00 1016 3 5 0.17 4.32
9:53 am 09:53 Cloudy with Thunderstorms 75 23.9 73 22.8 94 94 WNW 9 15 30.00 1016 6 10 0.18 4.57
10:00 am 10:00 Cloudy with Nearby Thunderstorms 75 23.9 73 22.8 94 94 W 5 7 30.01 1016 7 11 0.01 0.25
10:11 am 10:11 Cloudy with Rain 75 23.9 73 22.8 94 94 WSW 5 7 30.01 1016 3 5 0.03 0.76
10:23 am 10:23 Cloudy with Nearby Thunderstorms 76 24.4 73 22.8 91 91 Calm 30.01 1016 5 8 0.05 1.27
10:45 am 10:45 Cloudy with Light Rain 76 24.4 73 22.8 91 91 Calm 30.01 1016 8 13 0.08 2.03
10:53 am 10:53 Cloudy with Light Rain 76 24.4 73 22.8 91 91 Calm 30.01 1016 10 16 0.09 2.29
11:53 am 11:53 Sunny 80 26.7 74 23.3 82 82 undefined N/A 29.99 1016 10 16 0.01 0.13
12:53 pm 12:53 Sunny 84 28.9 74 23.3 72 72 SSW 6 9 29.98 1015 10 16 0.00 0.00
1:53 pm 13:53 Mostly Sunny 87 30.6 72 22.2 61 61 SW 9 15 29.95 1014 10 16 0.00 0.00
2:53 pm 14:53 Mostly Sunny 87 30.6 73 22.8 63 63 VRB 5 7 29.93 1013 10 16 0.00 0.00
3:53 pm 15:53 Partly Cloudy 89 31.7 73 22.8 59 59 SSW 8 13 29.93 1014 10 16 0.00 0.00
4:53 pm 16:53 Mostly Cloudy 85 29.4 74 23.3 70 70 S 17 28 29.92 1013 10 16 0.00 0.00
5:05 pm 17:05 Mostly Cloudy with Nearby Thunderstorms 84 28.9 74 23.3 72 72 S 15 24 29.92 1013 10 16 0.00 0.00
5:34 pm 17:34 Cloudy with Light Rain 80 26.7 75 23.9 85 85 SSE 14 22 29.93 1013 8 13 0.01 0.25
5:42 pm 17:42 Cloudy with Nearby Thunderstorms 80 26.7 75 23.9 85 85 SSE 13 20 29.93 1013 10 16 0.01 0.25
5:53 pm 17:53 Cloudy 81 27.2 76 24.4 85 85 SSE 9 15 29.93 1013 10 16 0.01 0.25
6:08 pm 18:08 Mostly Cloudy with Nearby Thunderstorms 81 27.2 76 24.4 85 85 SSE 9 15 29.93 1013 10 16 0.00 0.00
6:53 pm 18:53 Cloudy with Nearby Thunderstorms 82 27.8 77 25 85 85 SSE 8 13 29.93 1014 10 16 0.01 0.13
7:45 pm 19:45 Cloudy with Nearby Thunderstorms 80 26.7 75 23.9 85 85 NE 7 11 29.95 1014 10 16 0.00 0.00
7:53 pm 19:53 Cloudy with Nearby Thunderstorms 80 26.7 76 24.4 87 87 ENE 7 11 29.95 1014 10 16 0.00 0.00
8:12 pm 20:12 Mostly Cloudy 80 26.7 76 24.4 87 87 ENE 7 11 29.95 1014 10 16 0.00 0.00
8:28 pm 20:28 Mostly Clear 79 26.1 75 23.9 88 88 E 6 9 29.95 1014 10 16 0.00 0.00
8:53 pm 20:53 Mostly Cloudy 80 26.7 76 24.4 87 87 ENE 8 13 29.96 1015 10 16 0.00 0.00
9:24 pm 21:24 Mostly Cloudy 80 26.7 76 24.4 87 87 E 5 7 29.98 1015 10 16 0.00 0.00
9:53 pm 21:53 Mostly Cloudy 79 26.1 76 24.4 90 90 SE 5 7 29.97 1015 10 16 0.00 0.00
10:35 pm 22:35 Mostly Clear 78 25.6 76 24.4 93 93 S 5 7 29.96 1014 10 16 0.00 0.00
10:53 pm 22:53 Clear 78 25.6 76 24.4 93 93 Calm 29.95 1014 10 16 0.00 0.00
11:53 pm 23:53 Partly Cloudy 78 25.6 75 23.9 90 90 Calm 29.95 1014 10 16 0.00 0.00

Powered by AerisWeather